This demonstration page uses our WeatherBlox Daily Observations layout. Learn more.

Left ArrowRight Arrow

47.50024, -111.30081

Hourly Observations for January 9, 2016

Temp ( °F °C ) Dew Point ( °F °C ) Humidity (%) Winds ( mph kmh ) Pressure ( in mb ) Visibility ( mi km ) Precip ( " mm )
12:53 am 00:53 Cloudy 9 -12.8 6 -14.4 88 88 ENE 5 7 30.39 1029 10 16 0.00 0.00
1:53 am 01:53 Cloudy 9 -12.8 6 -14.4 88 88 ENE 8 13 30.27 1025 10 16 0.00 0.00
2:53 am 02:53 Cloudy 8 -13.3 5 -15 87 87 E 7 11 30.27 1025 10 16 0.00 0.00
3:53 am 03:53 Cloudy 7 -13.9 4 -15.6 87 87 E 6 9 30.27 1025 10 16 0.00 0.00
4:53 am 04:53 Mostly Cloudy 4 -15.6 1 -17.2 88 88 E 5 7 30.27 1025 10 16 0.00 0.00
5:53 am 05:53 Clear -1 -18.3 -3 -19.4 91 91 ESE 5 7 30.27 1025 10 16 0.00 0.00
6:37 am 06:37 Mostly Clear with Mist and Fog -1 -18.3 -4 -20 87 87 ESE 6 9 30.39 1029 5 8 0.00 0.00
6:53 am 06:53 Clear -3 -19.4 -7 -21.7 82 82 ESE 6 9 30.26 1025 10 16 0.00 0.00
7:53 am 07:53 Clear -5 -20.6 -7 -21.7 91 91 E 7 11 30.26 1025 10 16 0.00 0.00
8:53 am 08:53 Sunny -4 -20 -7 -21.7 86 86 E 6 9 30.26 1025 10 16 0.00 0.00
9:53 am 09:53 Sunny -5 -20.6 -8 -22.2 87 87 ESE 7 11 30.27 1025 9 14 0.00 0.00
10:53 am 10:53 Sunny -3 -19.4 -7 -21.7 82 82 E 7 11 30.27 1025 10 16 0.00 0.00
11:53 am 11:53 Sunny 2 -16.7 -2 -18.9 83 83 Calm 30.25 1025 10 16 0.00 0.00
12:53 pm 12:53 Sunny 1 -17.2 -4 -20 79 79 NNE 6 9 30.26 1025 10 16 0.00 0.00
1:53 pm 13:53 Sunny 2 -16.7 -3 -19.4 80 80 E 6 9 30.25 1024 10 16 0.00 0.00
2:53 pm 14:53 Sunny 0 -17.8 -5 -20.6 79 79 ESE 5 7 30.26 1025 10 16 0.00 0.00
3:53 pm 15:53 Sunny 0 -17.8 -5 -20.6 79 79 Calm 30.27 1025 10 16 0.00 0.00
4:53 pm 16:53 Sunny -3 -19.4 -8 -22.2 79 79 W 3 6 30.29 1026 10 16 0.00 0.00
5:53 pm 17:53 Clear -3 -19.4 -6 -21.1 86 86 WSW 7 11 30.30 1026 10 16 0.00 0.00
6:53 pm 18:53 Clear -2 -18.9 -6 -21.1 83 83 SW 7 11 30.31 1026 10 16 0.00 0.00
7:53 pm 19:53 Clear -4 -20 -8 -22.2 83 83 SW 10 17 30.30 1026 10 16 0.00 0.00
8:53 pm 20:53 Clear -1 -18.3 -5 -20.6 82 82 SW 9 15 30.29 1026 10 16 0.00 0.00
9:53 pm 21:53 Clear 2 -16.7 -2 -18.9 83 83 SSW 13 20 30.29 1026 10 16 0.00 0.00
10:53 pm 22:53 Clear 10 -12.2 5 -15 80 80 SSW 15 24 30.27 1025 10 16 0.00 0.00
11:53 pm 23:53 Clear 10 -12.2 4 -15.6 76 76 SSW 15 24 30.27 1025 10 16 0.00 0.00

Powered by AerisWeather